CW3786 Weather Reports


Display with metric or nautical units.
time (UTC)temp
F
wind
direction
speed
MPH
gust
MPH
rain 1hr
in
rain 24hr
in
rain mn
in
humidity
%
barometer
mb
20260901043039 65 267 0.0 0.0 0.00 0.00 0.00 87 1005.8
20260901041515 65 267 0.0 0.0 0.00 0.00 0.00 87 1005.4
20260901040045 64 267 0.0 0.0 0.00 0.00 0.00 86 1005.4
20260901034551 64 267 0.0 0.0 0.00 0.00 0.00 84 1005.2
20260901033044 65 268 0.0 0.0 0.00 0.00 0.00 83 1005.0
20260901031546 65 267 0.0 0.0 0.00 0.00 0.00 84 1004.7
20260901030023 65 265 0.0 0.0 0.00 0.00 0.00 82 1004.5
20260901024509 66 27 0.0 0.0 0.00 0.00 0.00 80 1004.2
20260901023047 66 26 0.0 0.0 0.00 0.00 0.00 80 1004.2
20260901021609 67 26 0.0 0.0 0.00 0.00 0.00 78 1004.4
20260901020052 68 355 0.0 0.0 0.00 0.00 0.00 77 1004.4
20260901014522 68 253 0.0 0.0 0.00 0.00 0.00 76 1004.4
20260901013009 69 275 0.0 0.0 0.00 0.00 0.00 73 1004.6
20260901011557 70 284 0.0 0.0 0.00 0.00 0.00 72 1004.6
20260901010047 72 261 0.0 0.0 0.00 0.00 0.00 68 1004.7
20260901004545 74 268 1.0 0.0 0.00 0.00 0.00 63 1004.8
20260901003019 76 269 0.0 0.0 0.00 0.00 0.00 60 1004.7
20260901001517 76 233 0.0 0.0 0.00 0.00 0.00 59 1004.7
20260901000014 77 271 0.0 0.0 0.00 0.00 0.00 57 1004.8
20260831234615 77 269 0.0 0.0 0.00 0.00 0.00 59 1004.8
20260831234509 77 274 0.0 0.0 0.00 0.00 0.00 57 1004.7
20260831233048 77 247 0.0 0.0 0.00 0.00 0.00 54 1004.7
20260831231538 78 275 0.0 0.0 0.00 0.00 0.00 54 1004.6
20260831230020 79 241 0.0 0.0 0.00 0.00 0.00 51 1004.7
20260831224512 78 216 0.0 0.0 0.00 0.00 0.00 49 1004.7
20260831223059 79 237 1.0 0.0 0.00 0.00 0.00 51 1004.7
20260831221540 79 288 0.0 0.0 0.00 0.00 0.00 53 1005.0
20260831220022 80 233 0.0 0.0 0.00 0.00 0.00 49 1005.2
20260831214556 80 242 0.0 0.0 0.00 0.00 0.00 47 1005.2
20260831213039 79 242 1.0 0.0 0.00 0.00 0.00 49 1005.2
20260831211611 80 252 1.0 0.0 0.00 0.00 0.00 50 1005.5
20260831211504 80 279 1.0 0.0 0.00 0.00 0.00 51 1005.6
20260831210008 81 240 0.0 0.0 0.00 0.00 0.00 50 1005.6
20260831204559 81 154 0.0 0.0 0.00 0.00 0.00 54 1005.6
20260831203053 80 207 0.0 0.0 0.00 0.00 0.00 55 1005.7
20260831201543 81 221 0.0 0.0 0.00 0.00 0.00 55 1005.7
20260831200022 81 169 0.0 0.0 0.00 0.00 0.00 52 1005.7
20260831194529 79 170 0.0 0.0 0.00 0.00 0.00 58 1005.9
20260831193050 80 190 0.0 0.0 0.00 0.00 0.00 55 1005.9
20260831191535 80 227 0.0 0.0 0.00 0.00 0.00 58 1005.9
20260831190008 83 64 0.0 0.0 0.00 0.00 0.00 54 1006.2
20260831184613 82 59 3.0 0.0 0.00 0.00 0.00 56 1006.2
20260831183058 81 84 0.0 0.0 0.00 0.00 0.00 57 1006.2
20260831181540 80 75 1.0 0.0 0.00 0.00 0.00 59 1006.2
20260831180040 79 82 2.0 0.0 0.00 0.00 0.00 61 1006.2
20260831174515 78 51 0.0 0.0 0.00 0.00 0.00 63 1006.2
20260831173059 77 52 0.0 0.0 0.00 0.00 0.00 65 1006.2
20260831171545 74 213 0.0 0.0 0.00 0.00 0.00 71 1006.2
20260831170036 73 214 0.0 0.0 0.00 0.00 0.00 74 1006.0
20260831164511 71 225 0.0 0.0 0.00 0.00 0.00 76 1005.8
20260831163051 70 225 0.0 0.0 0.00 0.00 0.00 79 1005.8
20260831161541 70 348 0.0 0.0 0.00 0.00 0.00 80 1005.8
20260831160045 69 323 0.0 0.0 0.00 0.00 0.00 84 1005.7
20260831154530 69 216 0.0 0.0 0.00 0.00 0.00 86 1005.7
20260831153021 68 217 0.0 0.0 0.00 0.00 0.00 89 1005.6
20260831151600 67 217 0.0 0.0 0.00 0.00 0.00 90 1005.6
20260831150051 67 251 0.0 0.0 0.00 0.00 0.00 92 1005.4
20260831144538 66 250 0.0 0.0 0.00 0.00 0.00 92 1005.2
20260831143012 65 251 0.0 0.0 0.00 0.00 0.00 91 1005.0
20260831141551 64 251 0.0 0.0 0.00 0.00 0.00 91 1005.0
20260831140017 63 251 0.0 0.0 0.00 0.00 0.00 90 1004.6
20260831134557 63 251 0.0 0.0 0.00 0.00 0.00 89 1004.6
20260831133030 63 251 0.0 0.0 0.00 0.00 0.00 89 1004.5
20260831131515 63 250 0.0 0.0 0.00 0.00 0.00 88 1004.3
20260831130050 63 250 0.0 0.0 0.00 0.00 0.00 88 1004.3
20260831124517 64 251 0.0 0.0 0.00 0.00 0.00 88 1004.1
20260831123057 64 251 0.0 0.0 0.00 0.00 0.00 88 1004.1
20260831121558 64 251 0.0 0.0 0.00 0.00 0.00 88 1004.1
20260831120023 64 250 0.0 0.0 0.00 0.00 0.00 88 1004.1
20260831114557 65 251 0.0 0.0 0.00 0.00 0.00 88 1004.1
20260831113044 64 251 0.0 0.0 0.00 0.00 0.00 87 1004.1
20260831111524 65 250 0.0 0.0 0.00 0.00 0.00 87 1004.1
20260831110137 65 250 0.0 0.0 0.00 0.00 0.00 86 1004.2
20260831104533 66 250 0.0 0.0 0.00 0.00 0.00 85 1004.1
20260831103036 66 251 0.0 0.0 0.00 0.00 0.00 85 1004.2
20260831101524 66 250 0.0 0.0 0.00 0.00 0.00 84 1004.1
20260831100010 66 251 0.0 0.0 0.00 0.00 0.00 83 1004.3
20260831094544 66 251 0.0 0.0 0.00 0.00 0.00 82 1004.3
20260831093031 67 251 0.0 0.0 0.00 0.00 0.00 82 1004.2
20260831091551 66 251 0.0 0.0 0.00 0.00 0.00 79 1004.2
20260831090046 66 251 0.0 0.0 0.00 0.00 0.00 76 1004.2
20260831084538 65 251 0.0 0.0 0.00 0.00 0.00 72 1004.2
20260831083020 66 251 0.0 0.0 0.00 0.00 0.00 69 1004.2
20260831081525 66 251 0.0 0.0 0.00 0.00 0.00 68 1004.5
20260831080042 66 251 0.0 0.0 0.00 0.00 0.00 69 1004.5
20260831074545 66 251 0.0 0.0 0.00 0.00 0.00 69 1004.3
20260831073143 66 251 0.0 0.0 0.00 0.00 0.00 70 1004.2
20260831071558 66 251 0.0 0.0 0.00 0.00 0.00 71 1004.1
20260831070049 66 251 0.0 0.0 0.00 0.00 0.00 72 1004.1
20260831064543 66 251 0.0 0.0 0.00 0.00 0.00 73 1004.1
20260831063029 67 251 0.0 0.0 0.00 0.00 0.00 74 1004.1
20260831061532 67 251 0.0 0.0 0.00 0.00 0.00 75 1004.0
20260831060014 67 251 0.0 0.0 0.00 0.00 0.00 75 1004.0
20260831054515 68 251 0.0 0.0 0.00 0.00 0.00 75 1004.0
20260831053057 68 251 0.0 0.0 0.00 0.00 0.00 74 1004.0
20260831051502 68 251 0.0 0.0 0.00 0.00 0.00 74 1004.1
20260831050131 69 251 0.0 0.0 0.00 0.00 0.00 73 1004.1
20260831044559 69 251 0.0 0.0 0.00 0.00 0.00 72 1004.1